Aérodrome :
LOGIN :

S'inscrire | Disclaimer

   EN    FR    IT 

 










Légende :    VFR   VFR Marginal   IFR   IFR Intensif   IFR Très Intensif
Visi : 
Plafond : 
>= 8 km
>= 3000ft
5 à 8 km
1000 à 3000 ft
1500m à 5 km
500 à 1000 ft
800 à 1500m
200 à 500 ft
< 800m
< 200 ft
Symboles :   Orages  Brouillard  Fortes neiges  Fortes précipitations  Vent > 20 kt
SIGMETs :   Divers  Orages  Givrage  Turbulence  Onde Orograph.  Cendres Volcan.







- Altitude de l'aérodrome : 1325 ft
- Code IATA : EBU
- Voir les cartes d'approche


LFMH - St-Etienne Boutheon

DERNIER METAR :
  • 172300Z AUTO VRB02KT CAVOK 16/13 Q1020

METARs EXPIRÉS :
  • 172230Z AUTO 07002KT CAVOK 17/12 Q1020
  • 172200Z AUTO VRB02KT CAVOK 18/12 Q1020
  • 172130Z AUTO 31003KT CAVOK 19/13 Q1019
  • 172100Z AUTO 30004KT CAVOK 20/13 Q1019
  • 172030Z AUTO 00000KT CAVOK 20/12 Q1019

TAF TAF LFMH
Valide du 17 à 15h jusqu'au 18 à 15h UTC


171400Z 1715/1815 36005KT CAVOK
ATIS : +33 4 77 36 17 51
Pas de NOTAMs connus pour ce terrain.



MET'MAP, la Météo Aéronautique d'un coup d'oeil ! - Copyright ORBIFLY Décembre 2007 - Disclaimer

ORBIFLY MET'MAP TEAM :

Programmation & Développement : Alexandra Zaïnal
Conception & Développement : Baudouin d'Aumeries
Co-Programmation & Développement : Marc-Olivier Méhu
Soutien technique & logistique : Manuel Goepfert

Contact : metmap@orbifly.com




SOURCES & CREDITS :

   NOAA